User: anonymous   Login
Location: Unspecified
(0.0000°N, 0.0000°E)
Time: 10:28:24
(UTC+00:00)
Language:

TOPO 1 - Orbit

View from above orbital plane
View from above orbital plane
View from above satellite
View from above satellite

Ground track
Ground track

The orbit data is extracted from the following two-line orbital elements,

1  4363U 70025B   18196.72154368 -.00000026 +00000-0 +32063-4 0  9998
2  4363 100.0068 095.7166 0001333 223.6477 158.2737 13.46570075371752
Epoch (UTC): 15 July 2018 17:19:01
Eccentricity: 0.0001333
inclination: 100.0068°
perigee height: 1084 km
apogee height: 1086 km
right ascension of ascending node: 95.7166°
argument of perigee: 223.6477°
revolutions per day: 13.46570075
mean anomaly at epoch: 158.2737°
orbit number at epoch: 37175

The dashed part of the orbit path shows where the satellite is in the earth's shadow,  

DLR